FENGYUN 1C DEB

Satellite information

Favourite Embed

Satellite Type and Status

DEBRISIN ORBIT

Key statistics

Satellite FENGYUN 1C DEB at a glance.

Uptime

9553

Days in orbit

Revolutions

≈ 14.3

Per day

Orbit

SSO

Sun Synchronous Orbit

Inclination

99.1

Latest

Satellite identification and parameters

Extended collection of information and parameters for FENGYUN 1C DEB.

Object identification

Identified? True

Debris? True

Object name: FENGYUN 1C DEB

International designator: 1999-025DTF

Object number (NORAD): 36182

Object ID (CCSDS): 36182

Country: PEOPLES REPUBLIC OF CHINA (PRC)

Current information (Y/N): Y

RCS size: SMALL

Orbital parameters

Period: 100.478 minutes

Inclination: 99.0842 deg

SMA: 7159.359 km

Apoapsis: 795.236 km

Periapsis: 767.211 km

RAAN: 103.7054 deg

Eccentricy: 0.0019572

Argument of periapsis: 189.8258 deg

Mean anomaly: 170.2545 deg

Mean motion: 14.33149801 rev/day

Mean motion (dot): 0.00002011 rev/day2

B* drag term: 0.00074829 1/REarth

Two-line elements (TLE)

Creation date: July 3, 2025, 5:26 p.m.

Reference frame: TEME

Reference center: EARTH

Epoch: July 3, 2025, 5:13 a.m. UTC

TLE line 0: 0 FENGYUN 1C DEB

TLE line 1: 1 36182U 99025DTF 25184.21788735 .00002011 00000-0 74829-3 0 9993

TLE line 2: 2 36182 99.0842 103.7054 0019572 189.8258 170.2545 14.33149801856286

Live tracking on map

Real-time ground track for satellite FENGYUN 1C DEB.

In-orbit conjunctions

A list of the most updated potential collisions computed for object FENGYUN 1C DEB.

Target Orbit TCA Probability of collision Miss distance Type
NOAA 6 SSO 2025-06-19 19:02:16 0.0001701316 670.0 (m) PAYLOAD
CZ-6A DEB LEO 2024-11-08 17:17:54 0.001028799 260.0 (m) DEBRIS
CZ-6A DEB LEO 2024-11-07 09:23:21 0.0001444776 816.0 (m) DEBRIS
COSMOS 2251 DEB LEO 2024-11-04 06:31:32 0.0001152148 107.0 (m) DEBRIS

Associated space launch

Chinese polar orbiting meteorological satellite

FENGYUN 1C DEB was lifted into orbit during the mission ‘Long March 4B | Feng Yun 1C’, on board a Long March 4B space rocket.

The launch took place on May 10, 1999, 1:33 a.m. from Launch Complex 7.

For more information about the launch, click the button.

Launch to space Long March 4B | Feng Yun 1C
Long March 4B | Feng Yun 1C

Agency: N/A

Status: Launch Successful

Launch date: May 10, 1999, 1:33 a.m. UTC

Rocket: Long March 4B

Launch pad: Launch Complex 7

Location: Taiyuan Satellite Launch Center, People's Republic of China

...

Latest news about this satellite

There are no fresh news available about this satellite. Check back as we update our databases every day.


Newsletter sign-up

Weekly statistics, charts and insights to help you stay on top of the space industry.